When you browse on this site, cookies collect data to enhance your experience and personalize the content and advertising you see.
Visit our Privacy Policy to learn more. By continuing to use the site, you agree to this use of cookies and data.
  • In Slovakia
  • List of Countries
  • For 7 days
  • Water Temperature
  • Satellite Maps
  • Weather Map
  • Weather Widgets
  • user-avatar
    Login

    Hourly Weather Canillo

    Today, 18 November, Sunday

    Time Temperature Precipitation Wind Pressure Humidity
    00:00 +1°C° 0 mm 2 mps 615 mmHg 91%
    01:00 +1°C° 1 mm 2 mps 615 mmHg 91%
    02:00 +1°C° 1 mm 2 mps 614 mmHg 91%
    03:00 0°C° 1 mm 3 mps 614 mmHg 91%
    04:00 0°C° 1.2 mm 3 mps 614 mmHg 91%
    05:00 -1°C° 1.2 mm 3 mps 614 mmHg 91%
    06:00 -1°C° 0 mm 2 mps 614 mmHg 91%
    07:00 -1°C° 0.9 mm 2 mps 614 mmHg 90%
    08:00 0°C° 0.9 mm 3 mps 614 mmHg 89%
    09:00 0°C° 0.9 mm 3 mps 614 mmHg 88%
    10:00 +1°C° 0.7 mm 3 mps 614 mmHg 86%
    11:00 +1°C° 0.7 mm 3 mps 614 mmHg 85%
    12:00 +2°C° 0 mm 3 mps 614 mmHg 83%
    13:00 +1°C° 0.3 mm 3 mps 614 mmHg 84%
    14:00 +1°C° 0.3 mm 3 mps 614 mmHg 84%
    15:00 +1°C° 0.3 mm 3 mps 613 mmHg 85%
    16:00 0°C° 0.2 mm 3 mps 613 mmHg 86%
    17:00 -1°C° 0.2 mm 2 mps 613 mmHg 88%
    18:00 -1°C° 0.2 mm 2 mps 612 mmHg 89%
    19:00 -2°C° 0.1 mm 2 mps 612 mmHg 89%
    20:00 -2°C° 0.1 mm 2 mps 612 mmHg 89%
    21:00 -2°C° 0.1 mm 2 mps 612 mmHg 89%
    22:00 -2°C° 0 mm 2 mps 612 mmHg 88%
    23:00 -2°C° 0 mm 2 mps 611 mmHg 88%

    Tomorrow, 19 November, Monday

    Time Temperature Precipitation Wind Pressure Humidity
    00:00 0°C° 0 mm 1 mps 611 mmHg 88%
    01:00 -1°C° 0 mm 1 mps 610 mmHg 87%
    02:00 -1°C° 0 mm 1 mps 610 mmHg 86%
    03:00 -1°C° 0 mm 1 mps 610 mmHg 85%
    04:00 -1°C° 0 mm 1 mps 609 mmHg 85%
    05:00 -1°C° 0 mm 1 mps 609 mmHg 84%
    06:00 -1°C° 0 mm 1 mps 609 mmHg 84%
    07:00 0°C° 0.1 mm 1 mps 609 mmHg 81%
    08:00 +1°C° 0.1 mm 1 mps 609 mmHg 79%
    09:00 +2°C° 0.1 mm 1 mps 610 mmHg 76%
    10:00 +3°C° 0.1 mm 1 mps 610 mmHg 75%
    11:00 +4°C° 0.1 mm 1 mps 610 mmHg 74%
    12:00 +4°C° 0.1 mm 1 mps 609 mmHg 73%
    13:00 +4°C° 0.3 mm 1 mps 609 mmHg 75%
    14:00 +3°C° 0.3 mm 1 mps 608 mmHg 78%
    15:00 +3°C° 0.3 mm 1 mps 608 mmHg 80%
    16:00 +2°C° 0.2 mm 1 mps 607 mmHg 84%
    17:00 +1°C° 0.2 mm 1 mps 607 mmHg 89%
    18:00 0°C° 0.2 mm 1 mps 606 mmHg 93%
    19:00 0°C° 0.3 mm 1 mps 606 mmHg 93%
    20:00 0°C° 0.3 mm 1 mps 606 mmHg 93%
    21:00 0°C° 0.3 mm 1 mps 606 mmHg 93%
    22:00 0°C° 0.3 mm 1 mps 606 mmHg 94%
    23:00 0°C° 0.3 mm 1 mps 606 mmHg 94%

    Day after tomorrow, 20 November, Tuesday

    Time Temperature Precipitation Wind Pressure Humidity
    00:00 0°C° 0.3 mm 1 mps 606 mmHg 95%
    01:00 0°C° 0.1 mm 1 mps 606 mmHg 95%
    02:00 0°C° 0.1 mm 1 mps 606 mmHg 94%
    03:00 0°C° 0.1 mm 1 mps 606 mmHg 94%
    04:00 -1°C° 0 mm 1 mps 605 mmHg 94%
    05:00 -1°C° 0 mm 1 mps 605 mmHg 94%
    06:00 -1°C° 0 mm 1 mps 605 mmHg 94%
    07:00 -1°C° 0 mm 1 mps 605 mmHg 91%
    08:00 0°C° 0 mm 1 mps 606 mmHg 88%
    09:00 0°C° 0 mm 1 mps 606 mmHg 85%
    10:00 -1°C° 0.4 mm 2 mps 606 mmHg 86%
    11:00 -1°C° 0.4 mm 2 mps 606 mmHg 88%
    12:00 -1°C° 0.4 mm 2 mps 606 mmHg 89%
    13:00 -1°C° 0.2 mm 2 mps 606 mmHg 89%
    14:00 +1°C° 0.2 mm 2 mps 606 mmHg 90%
    15:00 +1°C° 0.2 mm 2 mps 606 mmHg 90%
    16:00 -1°C° 0.3 mm 2 mps 606 mmHg 92%
    17:00 -1°C° 0.3 mm 2 mps 606 mmHg 94%
    18:00 0°C° 0.3 mm 1 mps 606 mmHg 96%
    19:00 0°C° 0.8 mm 1 mps 607 mmHg 96%
    20:00 0°C° 0.8 mm 1 mps 607 mmHg 96%
    21:00 0°C° 0.8 mm 1 mps 607 mmHg 96%
    22:00 0°C° 0.1 mm 1 mps 607 mmHg 97%
    23:00 0°C° 0.1 mm 1 mps 607 mmHg 97%

    21 November, Wednesday

    Time Temperature Precipitation Wind Pressure Humidity
    00:00 -1°C° 0.1 mm 1 mps 607 mmHg 97%
    01:00 -2°C° 0 mm 1 mps 607 mmHg 95%
    02:00 -3°C° 0 mm 1 mps 607 mmHg 94%
    03:00 -3°C° 0 mm 1 mps 607 mmHg 93%
    04:00 -4°C° 0 mm 1 mps 607 mmHg 91%
    05:00 -4°C° 0 mm 1 mps 607 mmHg 89%
    06:00 -4°C° 0 mm 1 mps 608 mmHg 87%
    07:00 -2°C° 0 mm 1 mps 609 mmHg 85%
    08:00 -1°C° 0 mm 1 mps 610 mmHg 83%
    09:00 +1°C° 0 mm 1 mps 611 mmHg 81%
    10:00 +2°C° 0 mm 1 mps 612 mmHg 80%
    11:00 +2°C° 0 mm 2 mps 612 mmHg 79%
    12:00 +3°C° 0 mm 2 mps 613 mmHg 78%
    13:00 +2°C° 0 mm 2 mps 613 mmHg 78%
    14:00 +2°C° 0 mm 2 mps 613 mmHg 79%
    15:00 +2°C° 0 mm 2 mps 613 mmHg 79%
    16:00 +1°C° 0 mm 2 mps 613 mmHg 83%
    17:00 0°C° 0 mm 1 mps 613 mmHg 87%
    18:00 -2°C° 0 mm 1 mps 613 mmHg 91%
    19:00 -2°C° 0 mm 1 mps 613 mmHg 88%
    20:00 -3°C° 0 mm 1 mps 613 mmHg 86%
    21:00 -3°C° 0 mm 1 mps 613 mmHg 83%
    22:00 -3°C° 0 mm 1 mps 613 mmHg 80%
    23:00 -3°C° 0 mm 1 mps 613 mmHg 77%

    22 November, Thursday

    Time Temperature Precipitation Wind Pressure Humidity
    00:00 -3°C° 0 mm 1 mps 613 mmHg 74%
    01:00 -3°C° 0 mm 1 mps 613 mmHg 74%
    02:00 -3°C° 0 mm 1 mps 613 mmHg 75%
    03:00 -3°C° 0 mm 1 mps 613 mmHg 75%
    04:00 -3°C° 0 mm 1 mps 614 mmHg 75%
    05:00 -3°C° 0 mm 1 mps 614 mmHg 76%
    06:00 -5°C° 0 mm 2 mps 614 mmHg 76%
    07:00 -3°C° 0 mm 2 mps 615 mmHg 74%
    08:00 -2°C° 0 mm 2 mps 616 mmHg 72%
    09:00 +1°C° 0 mm 2 mps 617 mmHg 70%
    10:00 +2°C° 0 mm 2 mps 617 mmHg 69%
    11:00 +3°C° 0 mm 2 mps 617 mmHg 68%
    12:00 +4°C° 0 mm 2 mps 618 mmHg 67%
    13:00 +4°C° 0 mm 2 mps 617 mmHg 68%
    14:00 +3°C° 0 mm 2 mps 617 mmHg 69%
    15:00 +3°C° 0 mm 2 mps 617 mmHg 71%
    16:00 +2°C° 0 mm 1 mps 616 mmHg 74%
    17:00 0°C° 0 mm 1 mps 616 mmHg 76%
    18:00 -2°C° 0 mm 1 mps 615 mmHg 79%
    19:00 -2°C° 0 mm 1 mps 616 mmHg 77%
    20:00 -2°C° 0 mm 1 mps 616 mmHg 75%
    21:00 -2°C° 0 mm 1 mps 616 mmHg 74%
    22:00 -2°C° 0 mm 1 mps 616 mmHg 73%
    23:00 -2°C° 0 mm 1 mps 616 mmHg 73%

    23 November, Friday

    Time Temperature Precipitation Wind Pressure Humidity
    00:00 -2°C° 0 mm 1 mps 616 mmHg 73%
    01:00 -2°C° 0 mm 1 mps 616 mmHg 73%
    02:00 -2°C° 0 mm 1 mps 616 mmHg 74%
    03:00 -2°C° 0 mm 1 mps 616 mmHg 74%
    04:00 -2°C° 0 mm 1 mps 616 mmHg 73%
    05:00 -1°C° 0 mm 1 mps 616 mmHg 73%
    06:00 -1°C° 0 mm 1 mps 616 mmHg 73%
    07:00 0°C° 0 mm 1 mps 617 mmHg 72%
    08:00 +1°C° 0 mm 1 mps 618 mmHg 71%
    09:00 +3°C° 0 mm 1 mps 619 mmHg 71%
    10:00 +2°C° 0.2 mm 2 mps 619 mmHg 73%
    11:00 +2°C° 0.2 mm 2 mps 619 mmHg 75%
    12:00 +3°C° 0.2 mm 2 mps 619 mmHg 77%
    13:00 +3°C° 0.1 mm 2 mps 618 mmHg 78%
    14:00 +4°C° 0.1 mm 1 mps 618 mmHg 79%
    15:00 +4°C° 0.1 mm 1 mps 618 mmHg 79%
    16:00 +3°C° 0.1 mm 1 mps 617 mmHg 81%
    17:00 +2°C° 0.1 mm 1 mps 617 mmHg 83%
    18:00 +1°C° 0.1 mm 1 mps 617 mmHg 85%
    19:00 +1°C° 0.1 mm 1 mps 617 mmHg 85%
    20:00 +1°C° 0.1 mm 1 mps 617 mmHg 84%
    21:00 +1°C° 0.1 mm 1 mps 617 mmHg 84%
    22:00 +1°C° 0.2 mm 1 mps 616 mmHg 85%
    23:00 +1°C° 0.2 mm 1 mps 616 mmHg 85%
    Show more